Regional Weather Roundup
Issued by NWS Charleston, SC

Current Version | Previous Version | Graphics & Text | Print | Product List | Glossary On
Versions: 1 2 3 4 5 6 7 8 9 10 11 12 13 14 15 16 17 18 19 20 21 22 23 24 25 26 27 28 29 30 31 32 33 34 35 36 37 38 39 40 41 42 43 44 45 46 47 48 49 50
166
ASUS42 KCHS 170412
RWRCHS

REGIONAL WEATHER ROUNDUP
NATIONAL WEATHER SERVICE CHARLESTON SC
1100 PM EST MON JAN 16 2017

NOTE: "FAIR" INDICATES FEW OR NO CLOUDS BELOW 12,000 FEET WITH NO
SIGNIFICANT WEATHER AND/OR OBSTRUCTIONS TO VISIBILITY.

NOT ALL STATIONS ARE QUALITY CONTROLLED. USE DATA WITH CAUTION...
ESPECIALLY DEWPOINT OBSERVATIONS.

SCZ027-030-031-034>040-042>050-170500-
...SOUTHEAST SOUTH CAROLINA...

CITY           SKY/WX    TMP DP  RH WIND       PRES   REMARKS
N CHARLESTON   MOCLDY    56  52  86 E3        30.30F
WATERFRONT PRK   N/A     56  54  93 VRB2      30.30F
MOUNT PLEASANT LGT RAIN  55  54  94 CALM      30.31S
JOHNS ISLAND   MOCLDY    55  54  94 CALM      30.30F
PINOPOLIS        N/A     55  55 100 CALM      30.22F
MONCKS CORNER  FAIR      52  50  93 CALM      30.31S FOG
SUMMERVILLE    CLOUDY   N/A N/A N/A CALM      30.31F
BEAUFORT MCAS  CLOUDY    59  57  93 CALM      30.31R
BEAUFORT ARPT  FAIR      55  54  94 E5        30.30S
HILTON HEAD IS PTCLDY    55  55 100 VRB5      30.31S
WALTERBORO     CLOUDY    61 N/A N/A E5        30.32S
ALLENDALE      FOG       61  59  94 CALM      30.29S VSB 1

...SOUTHERN MIDLANDS AND PEE DEE...

CITY           SKY/WX    TMP DP  RH WIND       PRES   REMARKS
GEORGETOWN     FAIR      52  50  93 E3        30.31F
KINGSTREE      CLOUDY    52  50  93 CALM      30.31F
ORANGEBURG     FOG       56  55  97 CALM      30.31S VSB 1/2
BARNWELL       FOG       59  59 100 CALM      30.31S VSB 1/4
AIKEN          CLOUDY    54  54 100 SE7       30.33S FOG
MANNING        FOG       54  52  94 CALM      30.31F VSB 3/4
COLUMBIA       FOG       54  53  97 E6        30.30F VSB 1/4
SUMTER         FOG       52  51  97 E3        30.29F VSB 1/2
FLORENCE       CLOUDY    53  51  93 E3        30.32F
MYRTLE BEACH   CLOUDY    55  50  82 E6        30.33F
N MYRTLE BEACH CLOUDY    53  51  93 NE5       30.31F

$$

GAZ063-065-086>088-099>101-113>116-118-119-134>141-150-170500-
...SOUTHEAST GEORGIA...

CITY           SKY/WX    TMP DP  RH WIND       PRES   REMARKS
SAVANNAH ARPT  FOG       58  56  93 E8        30.30F VSB 1
HUNTER AAF     CLOUDY    57  57 100 E6        30.28F
FORT STEWART   CLOUDY    58  57  97 SE5       30.27F FOG
STATESBORO     CLOUDY    62  62 100 SE5       30.30S FOG
SYLVANIA       CLOUDY   N/A N/A N/A CALM      30.30S FOG
CLAXTON        CLOUDY   N/A N/A N/A E3        30.29F

...CSRA...CENTRAL AND FAR SOUTHEAST GEORGIA...

CITY           SKY/WX    TMP DP  RH WIND       PRES   REMARKS
THOMSON        MOCLDY    59  59 100 SE3       30.33S
AUGUSTA-BUSH   CLOUDY    59  56  89 SE3       30.29S
AUGUSTA-DANIEL CLOUDY    58  54  86 E5        30.30R
SWAINSBORO     FAIR      63  59  88 SE6       30.28S
VIDALIA        CLEAR     61  61 100 SE6       30.28S
EASTMAN        FAIR      59  56  90 SE3       30.29S
HAZLEHURST     FAIR      63  61  93 SE5       30.26F
ALMA           MOCLDY    62  60  93 SE6       30.27F
WAYCROSS       CLEAR     64  64 100 SE6       30.28F
JESUP          CLOUDY    61  57  88 CALM      30.30F FOG
BAXLEY         CLOUDY    63  63 100 SE7       30.27F
BRUNSWICK      FOG       61  61 100 NE3       30.31S VSB 1/4
SAINT SIMONS   FOG       60  60 100 N5        30.29S VSB 1/2

$$

SCZ027-028-034-036>038-045-046-048>050-GAZ119-141-170500-
...LAKE AND SUPPLEMENTAL COASTAL OBSERVATIONS...

STATION/POSITION TIME  TEMP    WIND        PRES    WAVE   SWELL
                       AIR SEA DIR/SP/G            HT/PER HT/PER/DIR
                 (UTC) (F)     (DEG/KT/KT) (MB)    (FT/S) (FT/S/D)
WINYAH BAY       NOT AVBL
LAKE MURRAY      0320   53      80/  5/  6 1025.7
ACE BASIN NERRS  0245   58      60/  2     1026.0
FORT PULASKI     0342   56 56   50/  5/  6 1026.3F
SAPELO ISLAND    0300   60      30/  4     1026.0

$$

ANZ835-935-AMZ111-154-330-350-352-354-370-450-454-472-170500-
...C-MAN AND BUOY OBSERVATIONS...

STATION/POSITION TIME  TEMP    WIND        PRES    WAVE   SWELL
                       AIR SEA DIR/SP/G            HT/PER HT/PER/DIR
                 (UTC) (F)     (DEG/KT/KT) (MB)    (FT/S) (FT/S/D)
BUOY 41004       0250   69 70   50/ 14/ 16 1025.4    4/ 6   3/100/ 9
BUOY 41008       0250   61 59   70/  6/  6 1025.6    3/ 5   3/ 60/ 5
FOLLY BEACH CMAN 0300   55      50/ 10/ 12 1027.0S
CAPERS NEARSHORE NOT AVBL
FRIPP NEARSHORE  0308   56 56   70/ 12/ 14 1025.7F


STATION/POSITION TIME  TEMP    WIND        PRES    WAVE   SWELL
                       AIR SEA DIR/SP/G            HT/PER HT/PER/DIR
                 (UTC) (F)     (DEG/KT/KT) (MB)    (FT/S) (FT/S/D)
5E ST. MARYS GA  0330      62                N/A     2/10
FRYING PAN BUOY  0350   66 70   60/ 10/ 14 1026.0    3/ 8   2/140/ 8
BUOY 41025       0350   55 73   10/ 12/ 14 1026.2F   3/ 8   2/ 90/ 8
CAPE LOOKOUT NC  0300   49      10/  5/  6 1027.1F
BUOY 41002       0350   70 71  150/ 10/ 12 1026.4F   4/ 8   3/ 30/ 8
BUOY 41010       NOT AVBL
ST AUGUSTINE FL  0400   66 65  350/  2/  2 1026.3R


$$




USA.gov is the U.S. government's official web portal to all federal, state and local government web resources and services.